EW1088 Weather Reports


Display with metric or nautical units.
time (UTC)temp
F
wind
direction
speed
MPH
gust
MPH
rain 1hr
in
rain 24hr
in
rain mn
in
humidity
%
barometer
mb
20260510071219 43 146 2.0 7.0 0.00 0.02 0.02 83 992.9
20260510070718 44 146 3.0 8.0 0.00 0.02 0.02 83 992.8
20260510070219 44 122 4.0 11.0 0.00 0.03 0.02 83 992.8
20260510065718 44 136 5.0 14.0 0.00 0.03 0.02 83 992.8
20260510065216 44 124 5.0 14.0 0.00 0.03 0.02 82 992.8
20260510064716 44 121 5.0 11.0 0.00 0.03 0.02 82 992.7
20260510064220 44 114 4.0 12.0 0.00 0.03 0.02 83 992.7
20260510064216 44 108 5.0 11.0 0.00 0.03 0.02 83 992.8
20260510063821 44 119 4.0 12.0 0.00 0.03 0.02 83 992.6
20260510062715 44 124 3.0 10.0 0.00 0.03 0.02 82 992.5
20260510062220 44 183 3.0 8.0 0.00 0.04 0.02 82 992.3
20260510062216 44 166 3.0 8.0 0.00 0.03 0.02 82 992.3
20260510061217 44 81 3.0 7.0 0.00 0.04 0.02 82 992.3
20260510061211 44 208 3.0 8.0 0.00 0.04 0.02 81 992.2
20260510060211 44 153 3.0 8.0 0.00 0.04 0.02 80 992.2
20260510055707 45 190 2.0 6.0 0.00 0.04 0.02 80 992.1
20260510055210 45 159 2.0 6.0 0.00 0.04 0.02 80 992.2
20260510055206 45 147 2.0 7.0 0.00 0.04 0.02 80 992.1
20260510054207 45 228 3.0 10.0 0.00 0.04 0.02 80 992.0
20260510054203 45 154 5.0 11.0 0.00 0.04 0.02 80 991.9
20260510053202 45 179 5.0 11.0 0.00 0.04 0.02 80 991.9
20260510052702 45 207 5.0 10.0 0.00 0.04 0.02 80 991.8
20260510052206 45 160 4.0 9.0 0.00 0.04 0.02 79 991.8
20260510052202 45 181 4.0 8.0 0.00 0.04 0.02 79 991.9
20260510051202 46 170 4.0 10.0 0.00 0.04 0.02 78 991.7
20260510051158 46 176 4.0 10.0 0.00 0.04 0.02 78 991.7
20260510050159 46 185 5.0 13.0 0.00 0.04 0.02 77 991.7
20260510045658 46 174 6.0 13.0 0.00 0.04 0.02 77 991.6
20260510045158 46 157 6.0 16.0 0.00 0.04 0.02 76 991.6
20260510044702 47 192 6.0 13.0 0.00 0.04 0.02 74 991.6
20260510044658 47 120 6.0 16.0 0.00 0.04 0.02 75 991.6
20260510043658 47 124 7.0 15.0 0.00 0.04 0.02 74 991.6
20260510043158 47 166 7.0 15.0 0.00 0.04 0.02 74 991.6
20260510042658 47 144 6.0 14.0 0.00 0.04 0.02 74 991.5
20260510042158 48 139 6.0 14.0 0.00 0.04 0.02 73 991.4
20260510041657 48 151 7.0 15.0 0.00 0.04 0.02 73 991.4
20260510041159 48 131 7.0 16.0 0.00 0.04 0.02 73 991.4
20260510040703 48 139 6.0 15.0 0.00 0.04 0.02 73 991.5
20260510040659 48 154 7.0 16.0 0.00 0.04 0.02 73 991.5
20260510035658 48 128 6.0 14.0 0.00 0.04 0.02 73 991.5
20260510035156 48 119 5.0 14.0 0.00 0.04 0.02 73 991.6
20260510034656 48 146 4.0 12.0 0.00 0.04 0.02 73 991.6
20260510034156 48 137 6.0 16.0 0.00 0.04 0.02 73 991.5
20260510033652 48 145 7.0 16.0 0.00 0.04 0.02 73 991.5
20260510033156 48 115 7.0 14.0 0.00 0.04 0.02 73 991.5
20260510033152 48 104 7.0 14.0 0.00 0.04 0.02 73 991.5
20260510032150 48 137 7.0 14.0 0.00 0.04 0.02 73 991.5
20260510031651 48 128 7.0 13.0 0.00 0.04 0.02 74 991.4
20260510031146 48 175 6.0 13.0 0.00 0.04 0.02 73 991.5
20260510030646 48 122 6.0 15.0 0.00 0.04 0.02 73 991.5
20260510030146 48 132 8.0 17.0 0.00 0.04 0.02 73 991.5
20260510025646 48 109 7.0 17.0 0.00 0.04 0.02 73 991.5
20260510025146 48 131 6.0 13.0 0.00 0.04 0.02 73 991.5
20260510024646 48 152 6.0 13.0 0.00 0.04 0.02 72 991.4
20260510024145 49 67 6.0 13.0 0.00 0.04 0.02 72 991.3
20260510023646 49 166 6.0 11.0 0.00 0.04 0.02 72 991.3
20260510023146 48 172 7.0 20.0 0.00 0.04 0.02 72 991.3
20260510022651 49 163 6.0 14.0 0.00 0.04 0.02 72 991.4
20260510022646 48 114 6.0 20.0 0.00 0.04 0.02 72 991.3
20260510021646 48 120 7.0 16.0 0.00 0.04 0.02 73 991.4
20260510021146 48 173 7.0 16.0 0.00 0.04 0.02 73 991.5
20260510020650 49 112 7.0 17.0 0.00 0.04 0.02 73 991.4
20260510020646 48 120 7.0 17.0 0.00 0.04 0.02 73 991.5
20260510015646 49 134 6.0 14.0 0.00 0.04 0.02 73 991.4
20260510015149 49 156 7.0 17.0 0.00 0.04 0.02 72 991.4
20260510015145 49 114 7.0 17.0 0.00 0.04 0.02 72 991.5
20260510014752 49 162 6.0 13.0 0.00 0.04 0.02 72 991.5
20260510013645 49 160 7.0 13.0 0.00 0.04 0.02 73 991.4
20260510013146 48 131 7.0 13.0 0.00 0.04 0.02 74 991.4
20260510012646 48 156 6.0 17.0 0.00 0.04 0.02 74 991.4
20260510012150 48 113 6.0 14.0 0.00 0.04 0.02 75 991.5
20260510012146 48 137 6.0 17.0 0.00 0.04 0.02 75 991.5
20260510011751 48 158 7.0 18.0 0.00 0.04 0.02 76 991.5
20260510010646 48 145 7.0 18.0 0.00 0.04 0.02 75 991.6
20260510010146 48 137 6.0 12.0 0.00 0.04 0.02 75 991.6
20260510005646 48 174 7.0 13.0 0.00 0.04 0.02 75 991.6
20260510005146 48 167 6.0 13.0 0.00 0.04 0.02 74 991.6
20260510004646 48 179 6.0 16.0 0.00 0.04 0.02 75 991.6
20260510004147 48 158 8.0 16.0 0.00 0.04 0.02 75 991.7
20260510003643 49 143 8.0 15.0 0.00 0.04 0.02 73 991.7
20260510003144 49 154 8.0 15.0 0.00 0.04 0.02 72 991.7
20260510002643 49 135 6.0 14.0 0.00 0.04 0.02 71 991.6
20260510002140 49 198 7.0 17.0 0.00 0.04 0.02 72 991.7
20260510001639 49 165 10.0 19.0 0.00 0.04 0.02 71 991.7
20260510001143 49 197 10.0 19.0 0.00 0.04 0.02 71 991.6
20260510001139 49 178 11.0 19.0 0.00 0.04 0.02 71 991.6
20260510000139 49 137 9.0 19.0 0.00 0.04 0.02 71 991.6
20260509235641 49 141 9.0 16.0 0.00 0.04 0.02 71 991.5
20260509235135 50 147 8.0 17.0 0.00 0.04 0.02 70 991.4
20260509234635 50 120 9.0 17.0 0.00 0.04 0.02 69 991.4
20260509234139 49 102 8.0 18.0 0.00 0.04 0.02 70 991.5
20260509234135 50 133 9.0 18.0 0.00 0.04 0.02 70 991.4
20260509233239 49 141 9.0 17.0 0.00 0.04 0.02 72 991.5
20260509232631 49 158 10.0 23.0 0.00 0.04 0.02 72 991.5
20260509232136 49 96 8.0 21.0 0.00 0.04 0.02 74 991.6
20260509232132 49 112 9.0 23.0 0.00 0.04 0.02 72 991.7
20260509231134 49 116 7.0 17.0 0.00 0.04 0.02 74 991.7
20260509231130 49 80 8.0 17.0 0.00 0.04 0.02 73 991.8
20260509230129 48 119 7.0 14.0 0.00 0.04 0.02 75 991.7
20260509225629 48 153 8.0 17.0 0.00 0.04 0.02 75 991.8
20260509225134 47 183 9.0 19.0 0.00 0.04 0.02 75 991.8
20260509225129 47 124 10.0 19.0 0.00 0.04 0.02 76 991.8
20260509224129 47 154 8.0 18.0 0.00 0.04 0.02 75 991.8
20260509223630 47 166 8.0 18.0 0.00 0.04 0.02 75 991.8
20260509223130 48 108 6.0 18.0 0.00 0.04 0.02 74 991.7
20260509222629 48 191 8.0 19.0 0.00 0.04 0.02 74 991.7
20260509222133 48 116 8.0 18.0 0.00 0.04 0.02 72 991.7
20260509222129 48 130 9.0 19.0 0.00 0.04 0.02 73 991.6
20260509221130 48 149 8.0 21.0 0.00 0.04 0.02 73 991.7
20260509220630 49 140 8.0 21.0 0.00 0.04 0.02 72 991.7
20260509220130 49 119 8.0 20.0 0.00 0.04 0.02 74 991.6
20260509215630 48 121 8.0 20.0 0.00 0.04 0.02 75 991.7
20260509215130 48 142 7.0 18.0 0.00 0.04 0.02 74 991.6
20260509214629 48 189 6.0 11.0 0.00 0.04 0.02 75 991.5
20260509214133 47 62 6.0 13.0 0.00 0.04 0.02 77 991.6
20260509214129 48 123 6.0 13.0 0.00 0.04 0.02 76 991.6
20260509213128 47 136 6.0 14.0 0.00 0.04 0.02 78 991.6
20260509212626 46 89 6.0 14.0 0.00 0.04 0.02 79 991.5
20260509212125 46 129 5.0 12.0 0.00 0.04 0.02 80 991.6
20260509211625 46 160 6.0 13.0 0.00 0.04 0.02 80 991.5
20260509211125 45 134 7.0 13.0 0.00 0.04 0.02 80 991.5
20260509210625 45 155 6.0 13.0 0.00 0.04 0.02 79 991.5
20260509210126 46 107 5.0 12.0 0.00 0.04 0.02 80 991.6
20260509205626 45 140 7.0 13.0 0.00 0.04 0.02 79 991.5
20260509205129 45 156 6.0 11.0 0.00 0.04 0.02 81 991.5
20260509205125 45 174 6.0 13.0 0.00 0.04 0.02 80 991.5
20260509204125 45 152 6.0 11.0 0.00 0.04 0.02 81 991.5
20260509203624 44 168 6.0 14.0 0.00 0.04 0.02 83 991.5
20260509203122 44 156 7.0 14.0 0.00 0.04 0.02 83 991.5
20260509202621 44 145 7.0 13.0 0.00 0.04 0.02 82 991.6
20260509202120 44 188 7.0 14.0 0.00 0.04 0.02 82 991.6
20260509201621 44 147 7.0 14.0 0.00 0.04 0.02 83 991.6
20260509201228 44 137 5.0 11.0 0.00 0.04 0.02 83 991.5
20260509201125 44 145 6.0 12.0 0.00 0.04 0.02 83 991.5
20260509201121 44 134 7.0 13.0 0.00 0.04 0.02 83 991.6
20260509200229 44 142 5.0 12.0 0.00 0.04 0.02 83 991.5
20260509195119 44 122 5.0 12.0 0.00 0.04 0.02 83 991.5
20260509194619 44 139 5.0 12.0 0.00 0.04 0.02 83 991.5
20260509194123 43 153 7.0 14.0 0.00 0.04 0.02 82 991.6
20260509194119 43 131 6.0 14.0 0.00 0.04 0.02 83 991.6
20260509193119 43 162 6.0 14.0 0.00 0.04 0.02 82 991.5
20260509192619 43 158 6.0 13.0 0.00 0.04 0.02 82 991.5
20260509192117 43 176 5.0 11.0 0.00 0.04 0.02 84 991.5
20260509192113 43 121 5.0 12.0 0.00 0.04 0.02 83 991.5
20260509191113 43 133 5.0 11.0 0.00 0.04 0.02 84 991.3
20260509190613 42 110 6.0 11.0 0.00 0.04 0.02 84 991.3
20260509190114 42 127 5.0 11.0 0.00 0.04 0.02 85 991.3
20260509185617 42 146 6.0 12.0 0.00 0.04 0.02 85 991.3
20260509185613 42 144 5.0 10.0 0.00 0.04 0.02 85 991.4
20260509184616 42 143 5.0 12.0 0.00 0.04 0.02 86 991.5
20260509184611 42 131 6.0 12.0 0.00 0.04 0.02 85 991.4
20260509183611 42 145 6.0 12.0 0.00 0.04 0.02 86 991.4
20260509183111 41 189 6.0 11.0 0.00 0.04 0.02 87 991.4
20260509182611 41 149 6.0 13.0 0.00 0.04 0.02 87 991.4
20260509182114 41 144 5.0 11.0 0.00 0.04 0.02 88 991.4
20260509182110 41 141 6.0 13.0 0.00 0.04 0.02 88 991.4
20260509181117 40 133 5.0 13.0 0.00 0.04 0.02 90 991.5
20260509181112 40 137 5.0 13.0 0.00 0.04 0.02 89 991.5
20260509180107 40 148 5.0 10.0 0.00 0.04 0.02 90 991.4
20260509175607 40 114 5.0 10.0 0.00 0.04 0.02 90 991.4
20260509175107 40 81 5.0 10.0 0.00 0.04 0.02 90 991.4
20260509174611 39 133 3.0 7.0 0.00 0.04 0.02 92 991.4
20260509174607 39 114 4.0 10.0 0.00 0.04 0.02 91 991.4
20260509173606 39 121 3.0 7.0 0.00 0.04 0.02 92 991.5
20260509173104 38 153 3.0 7.0 0.00 0.04 0.02 93 991.6
20260509172604 38 112 2.0 6.0 0.00 0.04 0.02 93 991.6
20260509172104 38 137 2.0 5.0 0.00 0.04 0.02 93 991.6
20260509171601 38 105 2.0 7.0 0.00 0.04 0.02 93 991.7
20260509171059 38 126 2.0 7.0 0.00 0.04 0.02 94 991.7
20260509170559 37 104 2.0 7.0 0.00 0.04 0.02 94 991.8
20260509170057 37 118 3.0 9.0 0.00 0.04 0.02 94 991.7
20260509165556 37 94 3.0 9.0 0.00 0.04 0.02 94 991.8
20260509165053 37 124 3.0 7.0 0.00 0.04 0.02 94 991.8
20260509164553 37 133 2.0 5.0 0.00 0.04 0.02 94 991.8
20260509164057 36 141 3.0 8.0 0.00 0.04 0.02 94 991.9
20260509164053 37 97 2.0 8.0 0.00 0.04 0.02 94 991.9
20260509163053 36 139 3.0 7.0 0.00 0.04 0.02 94 992.0
20260509162553 36 135 3.0 5.0 0.00 0.04 0.02 94 992.0
20260509162056 36 126 2.0 6.0 0.00 0.04 0.02 94 992.0
20260509162051 36 132 3.0 5.0 0.00 0.04 0.02 94 992.0
20260509161051 36 125 3.0 7.0 0.00 0.04 0.02 94 992.0
20260509160550 36 124 4.0 8.0 0.00 0.04 0.02 94 992.0
20260509160051 36 106 3.0 8.0 0.00 0.04 0.02 94 992.1
20260509155549 36 124 2.0 5.0 0.00 0.04 0.02 95 992.1
20260509155047 36 145 2.0 4.0 0.00 0.04 0.02 94 992.1
20260509154547 36 141 2.0 4.0 0.00 0.04 0.02 95 992.1
20260509154047 36 176 2.0 5.0 0.00 0.04 0.02 95 992.1
20260509153546 36 117 2.0 5.0 0.00 0.04 0.02 94 992.1
20260509153049 36 178 2.0 4.0 0.00 0.04 0.02 94 992.1
20260509152551 36 155 2.0 4.0 0.00 0.04 0.02 94 992.1
20260509152547 36 159 1.0 4.0 0.00 0.04 0.02 94 992.1
20260509151545 36 149 2.0 4.0 0.00 0.04 0.02 94 992.2
20260509151045 36 168 2.0 5.0 0.00 0.04 0.02 94 992.2
20260509150542 36 172 2.0 5.0 0.00 0.04 0.02 94 992.2
20260509150043 36 155 1.0 5.0 0.00 0.04 0.02 94 992.2
20260509150039 36 106 1.0 2.0 0.00 0.04 0.02 94 992.2
20260509145042 36 99 0.0 3.0 0.00 0.04 0.02 94 992.3
20260509145036 36 114 1.0 3.0 0.00 0.04 0.02 94 992.3
20260509144039 36 123 0.0 2.0 0.00 0.04 0.02 94 992.5
20260509144035 36 123 0.0 2.0 0.00 0.04 0.02 94 992.5
20260509143039 36 123 0.0 3.0 0.00 0.04 0.02 94 992.7
20260509143035 36 123 0.0 1.0 0.00 0.04 0.02 94 992.5
20260509142035 36 122 1.0 3.0 0.00 0.04 0.02 94 992.8
20260509141537 36 126 1.0 3.0 0.00 0.04 0.02 94 992.9
20260509141533 36 129 0.0 2.0 0.00 0.04 0.02 94 992.9
20260509140532 36 126 1.0 4.0 0.00 0.04 0.02 94 993.0
20260509140033 36 122 2.0 4.0 0.00 0.04 0.02 94 993.1
20260509135537 36 197 1.0 3.0 0.00 0.04 0.02 94 993.1
20260509135533 36 129 1.0 4.0 0.00 0.04 0.02 94 993.0
20260509134536 36 131 1.0 3.0 0.00 0.04 0.02 94 993.2
20260509134532 36 131 1.0 3.0 0.00 0.04 0.02 94 993.2
20260509133533 36 131 1.0 3.0 0.00 0.04 0.02 94 993.2
20260509133033 36 131 1.0 3.0 0.00 0.04 0.02 93 993.3
20260509132534 36 131 0.0 2.0 0.00 0.04 0.02 93 993.4
20260509132530 36 131 1.0 2.0 0.00 0.04 0.02 93 993.4
20260509131635 37 131 1.0 3.0 0.00 0.04 0.02 94 993.6
20260509131532 37 131 0.0 2.0 0.00 0.04 0.02 94 993.6
20260509131528 36 131 0.0 2.0 0.00 0.04 0.02 94 993.6
20260509130029 37 131 1.0 3.0 0.00 0.04 0.02 94 993.7
20260509125529 37 131 0.0 1.0 0.00 0.04 0.02 94 993.7
20260509125033 37 131 0.0 0.0 0.00 0.04 0.02 94 994.1
20260509125029 37 131 0.0 0.0 0.00 0.04 0.02 94 993.9
20260509124028 37 131 0.0 0.0 0.00 0.04 0.02 94 994.1
20260509123528 37 131 0.0 0.0 0.00 0.04 0.02 94 994.1
20260509123029 37 131 0.0 0.0 0.00 0.04 0.02 94 994.3
20260509122529 37 131 0.0 1.0 0.00 0.04 0.02 94 994.3
20260509122028 37 131 0.0 1.0 0.00 0.04 0.02 94 994.4
20260509121533 37 131 0.0 1.0 0.00 0.04 0.02 94 994.5
20260509121529 37 131 0.0 1.0 0.00 0.04 0.02 94 994.4
20260509120528 37 131 0.0 2.0 0.00 0.04 0.02 94 994.5
20260509120028 37 131 1.0 3.0 0.00 0.04 0.02 94 994.7
20260509115528 37 131 1.0 3.0 0.00 0.04 0.02 94 994.7
20260509115028 37 131 0.0 3.0 0.00 0.04 0.02 94 994.8
20260509114529 37 131 0.0 1.0 0.00 0.04 0.02 95 994.9
20260509114029 37 131 0.0 2.0 0.00 0.04 0.02 95 994.9
20260509113526 37 131 0.0 2.0 0.00 0.04 0.02 95 994.9
20260509113026 37 131 0.0 0.0 0.00 0.04 0.02 95 995.1
20260509112527 37 131 0.0 0.0 0.00 0.04 0.02 94 995.1
20260509112027 37 131 0.0 1.0 0.00 0.04 0.02 94 995.2
20260509111527 37 131 1.0 2.0 0.00 0.04 0.02 94 995.2
20260509111523 37 131 1.0 2.0 0.00 0.04 0.02 94 995.3
20260509110528 38 131 0.0 0.0 0.00 0.04 0.02 94 995.5
20260509110522 37 131 0.0 2.0 0.00 0.04 0.02 94 995.3
20260509105524 38 131 0.0 0.0 0.00 0.04 0.02 94 995.5
20260509105520 38 131 0.0 0.0 0.00 0.04 0.02 94 995.6
20260509105124 38 131 0.0 1.0 0.00 0.04 0.02 94 995.8
20260509104622 38 131 0.0 0.0 0.00 0.04 0.02 94 995.7
20260509103519 38 131 0.0 1.0 0.00 0.04 0.02 94 995.9
20260509103515 38 131 0.0 1.0 0.00 0.04 0.02 94 995.8
20260509102512 38 131 0.0 1.0 0.00 0.04 0.02 94 995.9
20260509102012 38 131 0.0 2.0 0.00 0.04 0.02 94 996.0
20260509101507 38 131 1.0 2.0 0.00 0.04 0.02 94 996.0
20260509101004 38 131 1.0 2.0 0.00 0.04 0.02 94 996.1
20260509100509 38 131 0.0 2.0 0.00 0.04 0.02 93 996.2
20260509100505 38 131 0.0 2.0 0.01 0.04 0.02 93 996.3
20260509095505 38 131 0.0 2.0 0.01 0.04 0.02 93 996.4
20260509095501 38 131 0.0 2.0 0.01 0.04 0.02 93 996.3
20260509094459 38 131 0.0 2.0 0.01 0.04 0.02 93 996.5
20260509093956 38 131 0.0 2.0 0.01 0.04 0.02 93 996.6
20260509093457 38 131 0.0 2.0 0.01 0.04 0.02 93 996.7
20260509092954 38 131 0.0 2.0 0.01 0.04 0.02 93 996.7
20260509092455 38 131 1.0 3.0 0.01 0.04 0.02 92 996.9
20260509091952 38 131 1.0 3.0 0.01 0.04 0.02 92 997.0
20260509091452 38 131 1.0 3.0 0.01 0.04 0.02 92 997.0
20260509090952 38 131 1.0 3.0 0.01 0.04 0.02 92 997.1
20260509090453 38 131 1.0 2.0 0.02 0.04 0.02 92 997.2
20260509085956 39 131 0.0 2.0 0.01 0.03 0.01 92 997.4
20260509085952 39 131 1.0 2.0 0.01 0.03 0.01 92 997.3
20260509084952 39 131 0.0 0.0 0.01 0.03 0.01 92 997.5
20260509084456 39 131 0.0 0.0 0.01 0.03 0.01 92 997.7
20260509084452 39 131 0.0 0.0 0.01 0.03 0.01 92 997.6
20260509083452 39 131 0.0 0.0 0.01 0.03 0.01 92 997.7
20260509082950 39 131 0.0 0.0 0.01 0.03 0.01 91 997.8
20260509082450 39 131 0.0 0.0 0.01 0.03 0.01 91 997.9
20260509081948 39 131 0.0 2.0 0.01 0.03 0.01 91 997.9
20260509081446 39 131 1.0 2.0 0.01 0.03 0.01 91 998.0
20260509080947 39 131 1.0 2.0 0.01 0.03 0.01 90 998.1
20260509080444 39 131 1.0 2.0 0.01 0.02 0.00 90 998.1
20260509075943 39 131 0.0 2.0 0.01 0.02 0.02 90 998.2
20260509075442 39 131 0.0 2.0 0.01 0.02 0.02 90 998.2
20260509074942 39 131 1.0 2.0 0.01 0.02 0.02 89 998.2
20260509074443 39 131 1.0 2.0 0.01 0.02 0.02 89 998.3
20260509073947 39 131 1.0 3.0 0.01 0.02 0.02 89 998.5
20260509073943 39 131 1.0 3.0 0.01 0.02 0.02 89 998.4
20260509072943 40 131 1.0 3.0 0.01 0.02 0.02 89 998.5
20260509072443 40 131 1.0 3.0 0.01 0.02 0.02 88 998.6
20260509071942 40 131 0.0 2.0 0.02 0.02 0.02 88 998.6
20260509071442 40 131 0.0 0.0 0.02 0.02 0.02 88 998.7